Time,TemperatureF,DewpointF,PressureIn,WindDirection,WindDirectionDegrees,WindSpeedMPH,WindSpeedGustMPH,Humidity,HourlyPrecipIn,Conditions,Clouds,dailyrainin,SoftwareType,DateUTC
2013-05-12 00:02:00,64.9,50.3,30.18,SE,135,3.9,3.9,59,0.00,CLR,,0.00,WeatherDisplay:10.37,2013-05-12 05:02:00,
2013-05-12 00:07:00,64.8,49.6,30.19,ESE,112,4.6,4.6,58,0.00,CLR,,0.00,WeatherDisplay:10.37,2013-05-12 05:07:00,
2013-05-12 00:12:00,64.9,49.8,30.19,ESE,112,3.5,3.5,58,0.00,CLR,,0.00,WeatherDisplay:10.37,2013-05-12 05:12:00,
2013-05-12 00:17:00,64.8,49.6,30.19,ENE,68,3.5,3.5,58,0.00,CLR,,0.00,WeatherDisplay:10.37,2013-05-12 05:17:00,
2013-05-12 00:22:00,64.9,49.8,30.19,ENE,68,3.5,3.5,58,0.00,CLR,,0.00,WeatherDisplay:10.37,2013-05-12 05:22:00,
2013-05-12 00:27:00,64.8,50.1,30.18,ENE,68,2.6,2.8,59,0.00,CLR,,0.00,WeatherDisplay:10.37,2013-05-12 05:27:00,
2013-05-12 00:32:00,64.4,50.2,30.18,ENE,68,3.5,3.5,60,0.00,CLR,,0.00,WeatherDisplay:10.37,2013-05-12 05:32:00,
2013-05-12 00:37:00,64.0,50.8,30.18,ENE,68,2.8,2.8,62,0.00,CLR,,0.00,WeatherDisplay:10.37,2013-05-12 05:37:00,
2013-05-12 00:42:00,63.9,51.4,30.18,ENE,68,3.5,3.5,64,0.00,CLR,,0.00,WeatherDisplay:10.37,2013-05-12 05:42:00,
2013-05-12 00:47:00,63.5,51.5,30.18,NE,45,2.3,2.8,65,0.00,CLR,,0.00,WeatherDisplay:10.37,2013-05-12 05:47:00,
2013-05-12 00:52:00,63.1,51.2,30.18,ENE,68,3.5,3.5,65,0.00,CLR,,0.00,WeatherDisplay:10.37,2013-05-12 05:52:00,
2013-05-12 00:57:00,63.0,51.0,30.18,ENE,68,3.5,3.5,65,0.00,CLR,,0.00,WeatherDisplay:10.37,2013-05-12 05:57:00,
2013-05-12 01:02:00,63.0,50.6,30.18,ENE,68,4.6,4.6,64,0.00,CLR,,0.00,WeatherDisplay:10.37,2013-05-12 06:02:00,
2013-05-12 01:07:00,63.1,50.3,30.17,NE,45,4.6,4.6,63,0.00,CLR,,0.00,WeatherDisplay:10.37,2013-05-12 06:07:00,
2013-05-12 01:12:00,63.3,50.1,30.17,East,90,5.8,5.8,62,0.00,CLR,,0.00,WeatherDisplay:10.37,2013-05-12 06:12:00,
2013-05-12 01:17:00,63.3,49.6,30.17,ENE,68,4.6,4.6,61,0.00,CLR,,0.00,WeatherDisplay:10.37,2013-05-12 06:17:00,
2013-05-12 01:22:00,63.5,49.8,30.17,ENE,68,5.8,5.8,61,0.00,CLR,,0.00,WeatherDisplay:10.37,2013-05-12 06:22:00,
2013-05-12 01:27:00,63.7,49.5,30.14,East,90,6.9,6.9,60,0.00,CLR,,0.00,WeatherDisplay:10.37,2013-05-12 06:27:00,
2013-05-12 01:32:00,63.7,49.5,30.14,ENE,68,8.1,8.1,60,0.00,CLR,,0.00,WeatherDisplay:10.37,2013-05-12 06:32:00,
2013-05-12 01:37:00,63.7,49.5,30.14,ENE,68,3.5,4.5,60,0.00,CLR,,0.00,WeatherDisplay:10.37,2013-05-12 06:37:00,
2013-05-12 01:42:00,63.5,49.4,30.14,ENE,68,4.6,4.6,60,0.00,CLR,,0.00,WeatherDisplay:10.37,2013-05-12 06:42:00,
2013-05-12 01:47:00,63.5,49.4,30.15,ENE,68,5.8,5.8,60,0.00,CLR,,0.00,WeatherDisplay:10.37,2013-05-12 06:47:00,
2013-05-12 01:52:00,63.3,49.2,30.15,ESE,112,4.6,4.6,60,0.00,CLR,,0.00,WeatherDisplay:10.37,2013-05-12 06:52:00,
2013-05-12 01:57:00,63.1,48.6,30.15,NNE,22,2.3,3.0,59,0.00,CLR,,0.00,WeatherDisplay:10.37,2013-05-12 06:57:00,
2013-05-12 02:02:00,63.1,49.0,30.15,NNW,338,2.3,2.3,60,0.00,CLR,,0.00,WeatherDisplay:10.37,2013-05-12 07:02:00,
2013-05-12 02:07:00,63.0,49.3,30.16,North,0,1.2,1.2,61,0.00,CLR,,0.00,WeatherDisplay:10.37,2013-05-12 07:07:00,
2013-05-12 02:12:00,62.8,49.6,30.16,NNW,338,1.2,1.2,62,0.00,CLR,,0.00,WeatherDisplay:10.37,2013-05-12 07:12:00,
2013-05-12 02:17:00,62.8,49.6,30.16,NE,45,1.2,1.2,62,0.00,CLR,,0.00,WeatherDisplay:10.37,2013-05-12 07:17:00,
2013-05-12 02:22:00,62.6,49.4,30.16,ENE,68,1.2,1.2,62,0.00,CLR,,0.00,WeatherDisplay:10.37,2013-05-12 07:22:00,
2013-05-12 02:27:00,62.4,49.2,30.16,ENE,68,2.3,2.3,62,0.00,CLR,,0.00,WeatherDisplay:10.37,2013-05-12 07:27:00,
2013-05-12 02:32:00,62.2,49.5,30.16,ENE,68,2.3,2.3,63,0.00,CLR,,0.00,WeatherDisplay:10.37,2013-05-12 07:32:00,
2013-05-12 02:35:00,72.7,53.0,30.28,NNE,13,0.0,0.0,50,0.00,,,0.00,WeatherDisplay:10.37,2013-05-12 07:35:00,
2013-05-12 02:37:00,62.1,49.3,30.16,ENE,68,1.2,1.7,63,0.00,CLR,,0.00,WeatherDisplay:10.37,2013-05-12 07:37:00,
2013-05-12 02:40:00,72.9,53.1,30.28,ESE,118,3.0,3.0,50,0.00,,,0.00,WeatherDisplay:10.37,2013-05-12 07:40:00,
2013-05-12 02:42:00,62.1,49.3,30.16,NE,45,1.2,1.3,63,0.00,CLR,,0.00,WeatherDisplay:10.37,2013-05-12 07:42:00,
2013-05-12 02:45:00,72.9,53.1,30.28,ESE,109,2.0,3.0,50,0.00,,,0.00,WeatherDisplay:10.37,2013-05-12 07:45:00,
2013-05-12 02:47:00,61.7,49.4,30.17,NNE,22,1.2,1.2,64,0.00,CLR,,0.00,WeatherDisplay:10.37,2013-05-12 07:47:00,
2013-05-12 02:50:00,72.9,52.6,30.28,ENE,68,3.0,3.0,49,0.00,,,0.00,WeatherDisplay:10.37,2013-05-12 07:50:00,
2013-05-12 02:52:00,61.7,49.8,30.17,ENE,68,0.0,0.3,65,0.00,CLR,,0.00,WeatherDisplay:10.37,2013-05-12 07:52:00,
2013-05-12 02:55:00,73.0,53.8,30.28,East,79,3.0,3.0,51,0.00,,,0.00,WeatherDisplay:10.37,2013-05-12 07:55:00,
2013-05-12 02:57:00,61.2,49.7,30.17,ENE,68,2.3,2.3,66,0.00,CLR,,0.00,WeatherDisplay:10.37,2013-05-12 07:57:00,
2013-05-12 03:00:00,73.2,53.5,30.28,ENE,64,2.0,2.0,50,0.00,,,0.00,WeatherDisplay:10.37,2013-05-12 08:00:00,
2013-05-12 03:02:00,61.0,49.5,30.17,NE,45,1.2,1.2,66,0.00,CLR,,0.00,WeatherDisplay:10.37,2013-05-12 08:02:00,
2013-05-12 03:05:00,73.2,52.9,30.28,NE,56,2.0,4.0,49,0.00,,,0.00,WeatherDisplay:10.37,2013-05-12 08:05:00,
2013-05-12 03:07:00,60.8,49.8,30.18,SE,135,0.0,0.8,67,0.00,CLR,,0.00,WeatherDisplay:10.37,2013-05-12 08:07:00,
2013-05-12 03:10:00,73.2,52.9,30.27,ENE,68,2.0,2.0,49,0.00,,,0.00,WeatherDisplay:10.37,2013-05-12 08:10:00,
2013-05-12 03:12:00,60.6,49.6,30.18,ENE,68,2.3,2.3,67,0.00,CLR,,0.00,WeatherDisplay:10.37,2013-05-12 08:12:00,
2013-05-12 03:15:00,73.2,53.5,30.27,ENE,57,2.0,4.0,50,0.00,,,0.00,WeatherDisplay:10.37,2013-05-12 08:15:00,
2013-05-12 03:17:00,60.4,49.4,30.18,ENE,68,3.5,3.5,67,0.00,CLR,,0.00,WeatherDisplay:10.37,2013-05-12 08:17:00,
2013-05-12 03:20:00,73.4,53.1,30.27,NE,54,3.0,6.0,49,0.00,,,0.00,WeatherDisplay:10.37,2013-05-12 08:20:00,
2013-05-12 03:22:00,60.3,49.7,30.18,ENE,68,2.3,2.3,68,0.00,CLR,,0.00,WeatherDisplay:10.37,2013-05-12 08:22:00,
2013-05-12 03:27:00,60.1,49.5,30.17,ENE,68,1.5,2.0,68,0.00,CLR,,0.00,WeatherDisplay:10.37,2013-05-12 08:27:00,
2013-05-12 03:32:00,59.5,49.4,30.17,NE,45,2.3,2.3,69,0.00,CLR,,0.00,WeatherDisplay:10.37,2013-05-12 08:32:00,
2013-05-12 03:37:00,59.2,49.0,30.17,NE,45,2.3,2.3,69,0.00,CLR,,0.00,WeatherDisplay:10.37,2013-05-12 08:37:00,
2013-05-12 03:42:00,58.5,48.7,30.17,ENE,68,3.5,3.5,70,0.00,CLR,,0.00,WeatherDisplay:10.37,2013-05-12 08:42:00,
2013-05-12 03:47:00,58.3,48.9,30.17,East,90,2.4,2.4,71,0.00,CLR,,0.00,WeatherDisplay:10.37,2013-05-12 08:47:00,
2013-05-12 03:52:00,58.1,48.7,30.17,ENE,68,3.5,3.5,71,0.00,CLR,,0.00,WeatherDisplay:10.37,2013-05-12 08:52:00,
2013-05-12 03:57:00,58.1,49.1,30.17,ENE,68,2.4,2.4,72,0.00,CLR,,0.00,WeatherDisplay:10.37,2013-05-12 08:57:00,
2013-05-12 04:02:00,58.1,49.1,30.17,ENE,68,2.3,2.3,72,0.00,CLR,,0.00,WeatherDisplay:10.37,2013-05-12 09:02:00,
2013-05-12 04:07:00,57.9,48.9,30.17,ENE,68,3.5,3.5,72,0.00,CLR,,0.00,WeatherDisplay:10.37,2013-05-12 09:07:00,
2013-05-12 04:12:00,57.7,48.8,30.17,ENE,68,3.7,3.7,72,0.00,CLR,,0.00,WeatherDisplay:10.37,2013-05-12 09:12:00,
2013-05-12 04:17:00,57.4,48.8,30.17,ENE,68,2.6,2.6,73,0.00,CLR,,0.00,WeatherDisplay:10.37,2013-05-12 09:17:00,
2013-05-12 04:22:00,57.2,48.6,30.17,ENE,68,3.5,3.5,73,0.00,CLR,,0.00,WeatherDisplay:10.37,2013-05-12 09:22:00,
2013-05-12 04:27:00,57.2,49.0,30.17,NE,45,3.5,3.5,74,0.00,CLR,,0.00,WeatherDisplay:10.37,2013-05-12 09:27:00,
2013-05-12 04:32:00,56.8,48.6,30.17,ENE,68,1.5,2.0,74,0.00,CLR,,0.00,WeatherDisplay:10.37,2013-05-12 09:32:00,
2013-05-12 04:37:00,57.0,48.8,30.17,ENE,68,2.3,2.3,74,0.00,CLR,,0.00,WeatherDisplay:10.37,2013-05-12 09:37:00,
2013-05-12 04:42:00,57.2,48.6,30.17,NE,45,1.4,1.5,73,0.00,CLR,,0.00,WeatherDisplay:10.37,2013-05-12 09:42:00,
2013-05-12 04:47:00,57.2,49.0,30.17,ENE,68,2.3,2.3,74,0.00,CLR,,0.00,WeatherDisplay:10.37,2013-05-12 09:47:00,
2013-05-12 04:52:00,57.0,48.8,30.17,ENE,68,2.4,2.4,74,0.00,CLR,,0.00,WeatherDisplay:10.37,2013-05-12 09:52:00,
2013-05-12 04:57:00,57.0,48.8,30.17,ENE,68,2.8,2.8,74,0.00,CLR,,0.00,WeatherDisplay:10.37,2013-05-12 09:57:00,
2013-05-12 05:02:00,57.0,48.8,30.17,NE,45,2.9,2.9,74,0.00,CLR,,0.00,WeatherDisplay:10.37,2013-05-12 10:02:00,
2013-05-12 05:07:00,56.7,48.5,30.17,ENE,68,2.3,2.4,74,0.00,CLR,,0.00,WeatherDisplay:10.37,2013-05-12 10:07:00,
2013-05-12 05:12:00,56.7,48.5,30.17,ENE,68,2.3,2.3,74,0.00,CLR,,0.00,WeatherDisplay:10.37,2013-05-12 10:12:00,
2013-05-12 05:17:00,56.7,48.5,30.17,NE,45,2.4,2.4,74,0.00,CLR,,0.00,WeatherDisplay:10.37,2013-05-12 10:17:00,
2013-05-12 05:22:00,56.7,48.5,30.17,ENE,68,2.3,2.3,74,0.00,CLR,,0.00,WeatherDisplay:10.37,2013-05-12 10:22:00,
2013-05-12 05:27:00,56.7,48.5,30.17,ENE,68,2.3,2.3,74,0.00,CLR,,0.00,WeatherDisplay:10.37,2013-05-12 10:27:00,
2013-05-12 05:32:00,57.0,48.4,30.17,ENE,68,2.8,2.8,73,0.00,CLR,,0.00,WeatherDisplay:10.37,2013-05-12 10:32:00,
2013-05-12 05:37:00,57.0,48.4,30.17,NE,45,1.2,2.2,73,0.00,CLR,,0.00,WeatherDisplay:10.37,2013-05-12 10:37:00,
2013-05-12 05:42:00,57.2,48.3,30.17,NW,315,0.0,1.2,72,0.00,CLR,,0.00,WeatherDisplay:10.37,2013-05-12 10:42:00,
2013-05-12 05:47:00,57.2,48.6,30.17,North,0,1.2,1.2,73,0.00,CLR,,0.00,WeatherDisplay:10.37,2013-05-12 10:47:00,
2013-05-12 05:52:00,57.0,48.4,30.17,NE,45,1.2,1.2,73,0.00,CLR,,0.00,WeatherDisplay:10.37,2013-05-12 10:52:00,
2013-05-12 05:57:00,57.0,48.4,30.17,ENE,68,1.2,1.2,73,0.00,CLR,,0.00,WeatherDisplay:10.37,2013-05-12 10:57:00,
2013-05-12 06:02:00,56.7,48.1,30.17,ENE,68,1.2,1.2,73,0.00,CLR,,0.00,WeatherDisplay:10.37,2013-05-12 11:02:00,
2013-05-12 06:07:00,56.7,48.5,30.17,ENE,68,1.2,1.2,74,0.00,CLR,,0.00,WeatherDisplay:10.37,2013-05-12 11:07:00,
2013-05-12 06:12:00,56.3,48.1,30.17,ENE,68,2.3,2.3,74,0.00,CLR,,0.00,WeatherDisplay:10.37,2013-05-12 11:12:00,
2013-05-12 06:17:00,56.3,48.1,30.17,ENE,68,2.3,2.3,74,0.00,CLR,,0.00,WeatherDisplay:10.37,2013-05-12 11:17:00,
2013-05-12 06:22:00,56.1,47.9,30.17,ENE,68,3.5,3.5,74,0.00,CLR,,0.00,WeatherDisplay:10.37,2013-05-12 11:22:00,
2013-05-12 06:27:00,56.1,47.9,30.17,NE,45,2.3,2.4,74,0.00,CLR,,0.00,WeatherDisplay:10.37,2013-05-12 11:27:00,
2013-05-12 06:32:00,56.3,48.1,30.17,ENE,68,2.3,2.4,74,0.00,CLR,,0.00,WeatherDisplay:10.37,2013-05-12 11:32:00,
2013-05-12 06:37:00,56.3,48.1,30.17,ENE,68,3.5,3.5,74,0.00,CLR,,0.00,WeatherDisplay:10.37,2013-05-12 11:37:00,
2013-05-12 06:42:00,56.3,48.1,30.17,ENE,68,2.3,2.4,74,0.00,CLR,,0.00,WeatherDisplay:10.37,2013-05-12 11:42:00,
2013-05-12 06:47:00,56.5,48.3,30.18,NNE,22,3.5,3.5,74,0.00,CLR,,0.00,WeatherDisplay:10.37,2013-05-12 11:47:00,
2013-05-12 06:52:00,56.7,48.5,30.18,NE,45,2.3,2.3,74,0.00,CLR,,0.00,WeatherDisplay:10.37,2013-05-12 11:52:00,
2013-05-12 06:57:00,56.5,48.3,30.18,NE,45,2.3,2.3,74,0.00,CLR,,0.00,WeatherDisplay:10.37,2013-05-12 11:57:00,
2013-05-12 07:02:00,56.3,47.8,30.18,NE,45,1.2,1.8,73,0.00,CLR,,0.00,WeatherDisplay:10.37,2013-05-12 12:02:00,
2013-05-12 07:07:00,56.5,48.3,30.21,NE,45,1.2,1.5,74,0.00,CLR,,0.00,WeatherDisplay:10.37,2013-05-12 12:07:00,
2013-05-12 07:12:00,56.3,47.8,30.21,NE,45,1.2,1.3,73,0.00,CLR,,0.00,WeatherDisplay:10.37,2013-05-12 12:12:00,
2013-05-12 07:17:00,56.3,47.8,30.21,NE,45,2.3,2.3,73,0.00,CLR,,0.00,WeatherDisplay:10.37,2013-05-12 12:17:00,
2013-05-12 07:22:00,56.3,48.1,30.21,ENE,68,2.3,2.3,74,0.00,CLR,,0.00,WeatherDisplay:10.37,2013-05-12 12:22:00,
2013-05-12 07:27:00,56.5,48.3,30.24,ENE,68,2.3,2.3,74,0.00,CLR,,0.00,WeatherDisplay:10.37,2013-05-12 12:27:00,
2013-05-12 07:32:00,56.3,48.1,30.24,ENE,68,2.3,2.3,74,0.00,CLR,,0.00,WeatherDisplay:10.37,2013-05-12 12:32:00,
2013-05-12 07:37:00,56.3,48.1,30.24,NE,45,3.5,3.5,74,0.00,CLR,,0.00,WeatherDisplay:10.37,2013-05-12 12:37:00,
2013-05-12 07:42:00,56.3,48.1,30.24,ENE,68,2.3,2.6,74,0.00,CLR,,0.00,WeatherDisplay:10.37,2013-05-12 12:42:00,
2013-05-12 07:47:00,56.5,48.3,30.26,ENE,68,2.5,2.5,74,0.00,CLR,,0.00,WeatherDisplay:10.37,2013-05-12 12:47:00,
2013-05-12 07:52:00,56.8,48.6,30.26,NE,45,2.3,2.4,74,0.00,CLR,,0.00,WeatherDisplay:10.37,2013-05-12 12:52:00,
2013-05-12 07:57:00,57.0,48.8,30.26,ENE,68,3.5,3.5,74,0.00,CLR,,0.00,WeatherDisplay:10.37,2013-05-12 12:57:00,
2013-05-12 08:02:00,57.2,49.0,30.26,NE,45,2.3,2.5,74,0.00,CLR,,0.00,WeatherDisplay:10.37,2013-05-12 13:02:00,
2013-05-12 08:07:00,57.2,49.0,30.27,ENE,68,1.4,2.1,74,0.00,CLR,,0.00,WeatherDisplay:10.37,2013-05-12 13:07:00,
2013-05-12 08:12:00,57.4,49.2,30.27,NNE,22,1.4,1.4,74,0.00,CLR,,0.00,WeatherDisplay:10.37,2013-05-12 13:12:00,
2013-05-12 08:17:00,57.4,49.2,30.27,NNW,338,0.0,0.9,74,0.00,CLR,,0.00,WeatherDisplay:10.37,2013-05-12 13:17:00,
2013-05-12 08:22:00,57.7,49.5,30.27,South,180,0.0,0.3,74,0.00,CLR,,0.00,WeatherDisplay:10.37,2013-05-12 13:22:00,
2013-05-12 08:27:00,57.7,49.9,30.29,WSW,248,1.5,1.5,75,0.00,CLR,,0.00,WeatherDisplay:10.37,2013-05-12 13:27:00,
2013-05-12 08:32:00,57.7,49.9,30.29,WSW,248,2.3,2.3,75,0.00,CLR,,0.00,WeatherDisplay:10.37,2013-05-12 13:32:00,
2013-05-12 08:37:00,57.9,50.0,30.29,WSW,248,2.5,2.5,75,0.00,CLR,,0.00,WeatherDisplay:10.37,2013-05-12 13:37:00,
2013-05-12 08:42:00,58.1,50.6,30.29,SW,225,0.0,1.2,76,0.00,CLR,,0.00,WeatherDisplay:10.37,2013-05-12 13:42:00,
2013-05-12 08:47:00,57.9,50.0,30.30,SE,135,0.0,0.3,75,0.00,CLR,,0.00,WeatherDisplay:10.37,2013-05-12 13:47:00,
2013-05-12 08:52:00,58.3,51.1,30.30,ESE,112,1.6,1.6,77,0.00,CLR,,0.00,WeatherDisplay:10.37,2013-05-12 13:52:00,
2013-05-12 08:57:00,58.5,51.3,30.30,ENE,68,2.3,2.3,77,0.00,CLR,,0.00,WeatherDisplay:10.37,2013-05-12 13:57:00,
2013-05-12 09:02:00,58.5,51.3,30.30,NE,45,0.0,1.2,77,0.00,CLR,,0.00,WeatherDisplay:10.37,2013-05-12 14:02:00,
2013-05-12 09:07:00,58.8,51.6,30.30,ENE,68,1.2,1.2,77,0.00,CLR,,0.00,WeatherDisplay:10.37,2013-05-12 14:07:00,
2013-05-12 09:12:00,58.8,51.6,30.30,NE,45,1.2,1.2,77,0.00,CLR,,0.00,WeatherDisplay:10.37,2013-05-12 14:12:00,
2013-05-12 09:17:00,59.2,52.0,30.30,ENE,68,0.0,0.5,77,0.00,CLR,,0.00,WeatherDisplay:10.37,2013-05-12 14:17:00,
2013-05-12 09:22:00,59.4,52.1,30.30,ENE,68,0.0,0.5,77,0.00,CLR,,0.00,WeatherDisplay:10.37,2013-05-12 14:22:00,
2013-05-12 09:27:00,59.5,52.3,30.32,NE,45,0.0,0.6,77,0.00,CLR,,0.00,WeatherDisplay:10.37,2013-05-12 14:27:00,
2013-05-12 09:32:00,59.5,52.3,30.32,ENE,68,1.2,1.2,77,0.00,CLR,,0.00,WeatherDisplay:10.37,2013-05-12 14:32:00,
2013-05-12 09:37:00,59.9,52.3,30.32,NE,45,1.2,1.2,76,0.00,CLR,,0.00,WeatherDisplay:10.37,2013-05-12 14:37:00,
2013-05-12 09:42:00,60.3,52.7,30.32,NE,45,2.3,2.3,76,0.00,CLR,,0.00,WeatherDisplay:10.37,2013-05-12 14:42:00,
2013-05-12 09:47:00,60.4,52.8,30.32,NE,45,3.7,3.7,76,0.00,CLR,,0.00,WeatherDisplay:10.37,2013-05-12 14:47:00,
2013-05-12 09:52:00,60.8,52.8,30.32,NNW,338,2.3,2.6,75,0.00,CLR,,0.00,WeatherDisplay:10.37,2013-05-12 14:52:00,
2013-05-12 09:57:00,61.0,53.0,30.32,North,0,2.3,2.5,75,0.00,CLR,,0.00,WeatherDisplay:10.37,2013-05-12 14:57:00,
2013-05-12 10:02:00,61.2,52.8,30.32,NE,45,2.3,2.3,74,0.00,CLR,,0.00,WeatherDisplay:10.37,2013-05-12 15:02:00,
2013-05-12 10:07:00,61.5,52.8,30.32,ESE,112,3.5,3.5,73,0.00,CLR,,0.00,WeatherDisplay:10.37,2013-05-12 15:07:00,
2013-05-12 10:12:00,61.5,52.4,30.32,ENE,68,5.8,5.8,72,0.00,CLR,,0.00,WeatherDisplay:10.37,2013-05-12 15:12:00,
2013-05-12 10:17:00,61.7,52.2,30.32,SE,135,3.5,3.5,71,0.00,CLR,,0.00,WeatherDisplay:10.37,2013-05-12 15:17:00,
2013-05-12 10:22:00,62.1,52.9,30.32,SE,135,3.5,3.5,72,0.00,CLR,,0.00,WeatherDisplay:10.37,2013-05-12 15:22:00,
2013-05-12 10:27:00,62.4,52.9,30.30,ENE,68,4.6,4.6,71,0.00,CLR,,0.00,WeatherDisplay:10.37,2013-05-12 15:27:00,
2013-05-12 10:32:00,62.6,52.7,30.30,East,90,3.5,3.5,70,0.00,CLR,,0.00,WeatherDisplay:10.37,2013-05-12 15:32:00,
2013-05-12 10:37:00,62.8,52.8,30.30,ENE,68,4.6,4.6,70,0.00,CLR,,0.00,WeatherDisplay:10.37,2013-05-12 15:37:00,
2013-05-12 10:42:00,63.1,53.2,30.30,ESE,112,5.8,5.8,70,0.00,CLR,,0.00,WeatherDisplay:10.37,2013-05-12 15:42:00,
2013-05-12 10:47:00,63.5,53.1,30.30,ENE,68,8.1,8.1,69,0.00,CLR,,0.00,WeatherDisplay:10.37,2013-05-12 15:47:00,
2013-05-12 10:52:00,64.2,53.4,30.30,ENE,68,6.9,6.9,68,0.00,CLR,,0.00,WeatherDisplay:10.37,2013-05-12 15:52:00,
2013-05-12 10:57:00,64.6,53.4,30.30,NE,45,5.8,5.8,67,0.00,CLR,,0.00,WeatherDisplay:10.37,2013-05-12 15:57:00,
2013-05-12 11:02:00,65.1,53.9,30.30,ENE,68,8.1,8.1,67,0.00,CLR,,0.00,WeatherDisplay:10.37,2013-05-12 16:02:00,
2013-05-12 11:07:00,65.3,53.6,30.28,NE,45,6.9,6.9,66,0.00,CLR,,0.00,WeatherDisplay:10.37,2013-05-12 16:07:00,
2013-05-12 11:12:00,65.7,54.4,30.28,NE,45,4.6,5.2,67,0.00,CLR,,0.00,WeatherDisplay:10.37,2013-05-12 16:12:00,
2013-05-12 11:17:00,65.8,53.7,30.28,ESE,112,10.4,10.4,65,0.00,CLR,,0.00,WeatherDisplay:10.37,2013-05-12 16:17:00,
2013-05-12 11:22:00,66.0,53.5,30.28,NNE,22,8.1,8.1,64,0.00,CLR,,0.00,WeatherDisplay:10.37,2013-05-12 16:22:00,
2013-05-12 11:27:00,66.4,54.3,30.27,ENE,68,11.5,11.5,65,0.00,CLR,,0.00,WeatherDisplay:10.37,2013-05-12 16:27:00,
2013-05-12 11:32:00,66.7,53.7,30.27,NNE,22,8.1,8.1,63,0.00,CLR,,0.00,WeatherDisplay:10.37,2013-05-12 16:32:00,
2013-05-12 11:37:00,66.6,54.0,30.27,ENE,68,6.9,6.9,64,0.00,CLR,,0.00,WeatherDisplay:10.37,2013-05-12 16:37:00,
2013-05-12 11:42:00,66.9,53.9,30.27,ESE,112,8.1,8.1,63,0.00,CLR,,0.00,WeatherDisplay:10.37,2013-05-12 16:42:00,
2013-05-12 11:47:00,67.3,54.3,30.29,ENE,68,7.5,7.5,63,0.00,CLR,,0.00,WeatherDisplay:10.37,2013-05-12 16:47:00,
2013-05-12 11:52:00,68.0,54.5,30.29,NW,315,11.5,11.5,62,0.00,CLR,,0.00,WeatherDisplay:10.37,2013-05-12 16:52:00,
2013-05-12 11:57:00,68.4,54.4,30.29,ENE,68,8.1,8.1,61,0.00,CLR,,0.00,WeatherDisplay:10.37,2013-05-12 16:57:00,
2013-05-12 12:02:00,68.9,55.3,30.29,NE,45,8.1,8.1,62,0.00,CLR,,0.00,WeatherDisplay:10.37,2013-05-12 17:02:00,
2013-05-12 12:07:00,69.3,54.8,30.30,NE,45,6.9,6.9,60,0.00,CLR,,0.00,WeatherDisplay:10.37,2013-05-12 17:07:00,
2013-05-12 12:12:00,69.4,54.9,30.30,East,90,4.6,5.3,60,0.00,CLR,,0.00,WeatherDisplay:10.37,2013-05-12 17:12:00,
2013-05-12 12:17:00,70.0,55.0,30.30,ENE,68,2.4,4.6,59,0.00,CLR,,0.00,WeatherDisplay:10.37,2013-05-12 17:17:00,
2013-05-12 12:22:00,70.2,53.7,30.30,ESE,112,5.1,5.1,56,0.00,CLR,,0.00,WeatherDisplay:10.37,2013-05-12 17:22:00,
2013-05-12 12:27:00,70.3,54.4,30.28,SE,135,1.2,3.5,57,0.00,CLR,,0.00,WeatherDisplay:10.37,2013-05-12 17:27:00,
2013-05-12 12:32:00,70.9,55.4,30.28,ENE,68,2.3,3.2,58,0.00,CLR,,0.00,WeatherDisplay:10.37,2013-05-12 17:32:00,
2013-05-12 12:37:00,71.1,54.6,30.28,SE,135,8.1,8.1,56,0.00,CLR,,0.00,WeatherDisplay:10.37,2013-05-12 17:37:00,
2013-05-12 12:42:00,71.2,55.2,30.28,ESE,112,9.2,9.2,57,0.00,CLR,,0.00,WeatherDisplay:10.37,2013-05-12 17:42:00,
2013-05-12 12:47:00,71.1,54.1,30.28,ESE,112,6.2,6.2,55,0.00,CLR,,0.00,WeatherDisplay:10.37,2013-05-12 17:47:00,
2013-05-12 12:52:00,71.1,54.1,30.28,ENE,68,6.9,6.9,55,0.00,CLR,,0.00,WeatherDisplay:10.37,2013-05-12 17:52:00,
2013-05-12 12:57:00,71.4,55.4,30.28,NE,45,6.1,6.1,57,0.00,CLR,,0.00,WeatherDisplay:10.37,2013-05-12 17:57:00,
2013-05-12 13:02:00,72.0,54.9,30.28,SSW,202,4.6,4.6,55,0.00,CLR,,0.00,WeatherDisplay:10.37,2013-05-12 18:02:00,
2013-05-12 13:07:00,72.1,55.1,30.28,SW,225,2.6,3.3,55,0.00,CLR,,0.00,WeatherDisplay:10.37,2013-05-12 18:07:00,
2013-05-12 13:12:00,72.5,55.4,30.28,SW,225,4.6,4.6,55,0.00,CLR,,0.00,WeatherDisplay:10.37,2013-05-12 18:12:00,
2013-05-12 13:17:00,72.7,55.1,30.28,ESE,112,2.6,3.3,54,0.00,CLR,,0.00,WeatherDisplay:10.37,2013-05-12 18:17:00,
2013-05-12 13:22:00,72.9,55.2,30.28,East,90,4.6,4.6,54,0.00,CLR,,0.00,WeatherDisplay:10.37,2013-05-12 18:22:00,
2013-05-12 13:27:00,72.9,55.2,30.28,SE,135,2.3,2.6,54,0.00,CLR,,0.00,WeatherDisplay:10.37,2013-05-12 18:27:00,
2013-05-12 13:32:00,72.9,55.2,30.28,East,90,2.3,2.3,54,0.00,CLR,,0.00,WeatherDisplay:10.37,2013-05-12 18:32:00,
2013-05-12 13:37:00,72.7,55.1,30.28,ENE,68,3.9,3.9,54,0.00,CLR,,0.00,WeatherDisplay:10.37,2013-05-12 18:37:00,
2013-05-12 13:42:00,72.9,54.7,30.28,NE,45,3.5,3.5,53,0.00,CLR,,0.00,WeatherDisplay:10.37,2013-05-12 18:42:00,
2013-05-12 13:47:00,72.7,55.1,30.28,ESE,112,5.2,5.2,54,0.00,CLR,,0.00,WeatherDisplay:10.37,2013-05-12 18:47:00,
2013-05-12 13:52:00,72.9,54.7,30.28,ENE,68,3.5,3.5,53,0.00,CLR,,0.00,WeatherDisplay:10.37,2013-05-12 18:52:00,
2013-05-12 13:57:00,72.7,54.6,30.28,NE,45,2.3,2.6,53,0.00,CLR,,0.00,WeatherDisplay:10.37,2013-05-12 18:57:00,
2013-05-12 14:02:00,72.9,54.2,30.28,ENE,68,6.9,6.9,52,0.00,CLR,,0.00,WeatherDisplay:10.37,2013-05-12 19:02:00,
2013-05-12 14:07:00,72.7,54.0,30.28,SSE,158,2.3,3.2,52,0.00,CLR,,0.00,WeatherDisplay:10.37,2013-05-12 19:07:00,
2013-05-12 14:12:00,72.9,54.7,30.28,ENE,68,2.3,2.9,53,0.00,CLR,,0.00,WeatherDisplay:10.37,2013-05-12 19:12:00,
2013-05-12 14:17:00,72.9,54.2,30.28,NE,45,4.6,4.6,52,0.00,CLR,,0.00,WeatherDisplay:10.37,2013-05-12 19:17:00,
2013-05-12 14:22:00,73.0,53.3,30.28,SE,135,3.8,3.8,50,0.00,CLR,,0.00,WeatherDisplay:10.37,2013-05-12 19:22:00,
2013-05-12 14:27:00,73.0,52.7,30.28,ENE,68,4.6,4.6,49,0.00,CLR,,0.00,WeatherDisplay:10.37,2013-05-12 19:27:00,
2013-05-12 15:24:00,73.4,52.5,30.27,East,90,5.8,5.8,48,0.00,CLR,,0.00,WeatherDisplay:10.37,2013-05-12 20:24:00,
2013-05-12 15:29:00,73.6,53.2,30.26,ENE,68,6.9,6.9,49,0.00,CLR,,0.00,WeatherDisplay:10.37,2013-05-12 20:29:00,
2013-05-12 15:34:00,73.6,53.2,30.26,NE,45,4.6,4.6,49,0.00,CLR,,0.00,WeatherDisplay:10.37,2013-05-12 20:34:00,
2013-05-12 15:39:00,73.9,53.0,30.26,ENE,68,6.9,6.9,48,0.00,CLR,,0.00,WeatherDisplay:10.37,2013-05-12 20:39:00,
2013-05-12 15:44:00,74.3,53.3,30.25,ENE,68,6.9,6.9,48,0.00,CLR,,0.00,WeatherDisplay:10.37,2013-05-12 20:44:00,
2013-05-12 15:49:00,74.3,53.3,30.25,East,90,5.8,5.8,48,0.00,CLR,,0.00,WeatherDisplay:10.37,2013-05-12 20:49:00,
2013-05-12 15:54:00,74.3,53.3,30.25,ENE,68,8.6,8.6,48,0.00,CLR,,0.00,WeatherDisplay:10.37,2013-05-12 20:54:00,
2013-05-12 15:59:00,74.3,53.3,30.25,ENE,68,2.3,4.3,48,0.00,CLR,,0.00,WeatherDisplay:10.37,2013-05-12 20:59:00,
2013-05-12 16:04:00,74.5,52.9,30.25,NE,45,3.5,4.3,47,0.00,CLR,,0.00,WeatherDisplay:10.37,2013-05-12 21:04:00,
2013-05-12 16:09:00,74.7,53.1,30.25,SE,135,4.6,4.6,47,0.00,CLR,,0.00,WeatherDisplay:10.37,2013-05-12 21:09:00,
2013-05-12 16:14:00,75.0,54.0,30.25,NNW,338,4.6,4.6,48,0.00,CLR,,0.00,WeatherDisplay:10.37,2013-05-12 21:14:00,
2013-05-12 16:19:00,74.8,52.7,30.25,ENE,68,3.5,3.5,46,0.00,CLR,,0.00,WeatherDisplay:10.37,2013-05-12 21:19:00,
2013-05-12 16:24:00,75.0,52.2,30.24,SE,135,4.6,4.6,45,0.00,CLR,,0.00,WeatherDisplay:10.37,2013-05-12 21:24:00,
2013-05-12 16:29:00,74.8,52.7,30.24,ESE,112,3.5,4.0,46,0.00,CLR,,0.00,WeatherDisplay:10.37,2013-05-12 21:29:00,
2013-05-12 16:34:00,75.0,52.8,30.24,NNE,22,5.8,5.8,46,0.00,CLR,,0.00,WeatherDisplay:10.37,2013-05-12 21:34:00,
2013-05-12 16:39:00,75.0,52.2,30.24,SE,135,6.9,6.9,45,0.00,CLR,,0.00,WeatherDisplay:10.37,2013-05-12 21:39:00,
2013-05-12 16:44:00,75.4,53.2,30.22,East,90,8.1,8.1,46,0.00,CLR,,0.00,WeatherDisplay:10.37,2013-05-12 21:44:00,
2013-05-12 16:49:00,75.9,53.0,30.22,SE,135,3.5,3.7,45,0.00,CLR,,0.00,WeatherDisplay:10.37,2013-05-12 21:49:00,
2013-05-12 16:54:00,76.1,54.4,30.22,ESE,112,5.8,5.8,47,0.00,CLR,,0.00,WeatherDisplay:10.37,2013-05-12 21:54:00,
2013-05-12 16:59:00,76.3,53.4,30.22,West,270,9.3,9.3,45,0.00,CLR,,0.00,WeatherDisplay:10.37,2013-05-12 21:59:00,
2013-05-12 17:04:00,76.1,52.0,30.22,SSE,158,9.2,9.2,43,0.00,CLR,,0.00,WeatherDisplay:10.37,2013-05-12 22:04:00,
2013-05-12 17:09:00,75.9,51.2,30.22,ESE,112,5.8,5.8,42,0.00,CLR,,0.00,WeatherDisplay:10.37,2013-05-12 22:09:00,
2013-05-12 17:14:00,75.7,49.7,30.22,ESE,112,10.4,10.4,40,0.00,CLR,,0.00,WeatherDisplay:10.37,2013-05-12 22:14:00,
2013-05-12 17:19:00,75.9,50.5,30.22,ESE,112,3.5,4.1,41,0.00,CLR,,0.00,WeatherDisplay:10.37,2013-05-12 22:19:00,
2013-05-12 17:24:00,76.1,50.7,30.22,SE,135,6.9,6.9,41,0.00,CLR,,0.00,WeatherDisplay:10.37,2013-05-12 22:24:00,
2013-05-12 17:29:00,75.9,50.5,30.22,East,90,8.1,8.1,41,0.00,CLR,,0.00,WeatherDisplay:10.37,2013-05-12 22:29:00,
2013-05-12 17:34:00,75.9,51.2,30.22,SSE,158,6.9,6.9,42,0.00,CLR,,0.00,WeatherDisplay:10.37,2013-05-12 22:34:00,
2013-05-12 17:39:00,75.7,50.4,30.22,South,180,9.7,9.7,41,0.00,CLR,,0.00,WeatherDisplay:10.37,2013-05-12 22:39:00,
2013-05-12 17:44:00,75.9,50.5,30.21,ESE,112,6.9,6.9,41,0.00,CLR,,0.00,WeatherDisplay:10.37,2013-05-12 22:44:00,
2013-05-12 17:49:00,76.1,50.7,30.21,SE,135,6.9,6.9,41,0.00,CLR,,0.00,WeatherDisplay:10.37,2013-05-12 22:49:00,
2013-05-12 17:54:00,75.9,49.9,30.21,South,180,5.8,5.8,40,0.00,CLR,,0.00,WeatherDisplay:10.37,2013-05-12 22:54:00,
2013-05-12 17:59:00,75.9,49.9,30.21,South,180,7.0,7.0,40,0.00,CLR,,0.00,WeatherDisplay:10.37,2013-05-12 22:59:00,
2013-05-12 18:04:00,75.9,50.5,30.21,West,270,6.9,6.9,41,0.00,CLR,,0.00,WeatherDisplay:10.37,2013-05-12 23:04:00,
2013-05-12 18:09:00,75.7,50.4,30.21,ENE,68,8.1,8.1,41,0.00,CLR,,0.00,WeatherDisplay:10.37,2013-05-12 23:09:00,
2013-05-12 18:14:00,75.7,49.7,30.21,ESE,112,6.3,6.3,40,0.00,CLR,,0.00,WeatherDisplay:10.37,2013-05-12 23:14:00,
2013-05-12 18:19:00,75.7,49.0,30.21,ESE,112,8.1,8.1,39,0.00,CLR,,0.00,WeatherDisplay:10.37,2013-05-12 23:19:00,
2013-05-12 18:24:00,75.4,48.7,30.21,ENE,68,6.6,6.6,39,0.00,CLR,,0.00,WeatherDisplay:10.37,2013-05-12 23:24:00,
2013-05-12 18:29:00,75.4,50.0,30.21,ENE,68,5.8,5.8,41,0.00,CLR,,0.00,WeatherDisplay:10.37,2013-05-12 23:29:00,
2013-05-12 18:34:00,75.2,49.2,30.21,NE,45,8.2,8.2,40,0.00,CLR,,0.00,WeatherDisplay:10.37,2013-05-12 23:34:00,
2013-05-12 18:39:00,75.0,48.4,30.21,ENE,68,8.1,8.1,39,0.00,CLR,,0.00,WeatherDisplay:10.37,2013-05-12 23:39:00,
2013-05-12 18:44:00,74.8,47.5,30.21,SE,135,5.8,5.8,38,0.00,CLR,,0.00,WeatherDisplay:10.37,2013-05-12 23:44:00,
2013-05-12 18:49:00,74.7,47.4,30.21,West,270,6.9,6.9,38,0.00,CLR,,0.00,WeatherDisplay:10.37,2013-05-12 23:49:00,
2013-05-12 18:54:00,74.7,48.1,30.21,NNE,22,3.5,4.3,39,0.00,CLR,,0.00,WeatherDisplay:10.37,2013-05-12 23:54:00,
2013-05-12 18:59:00,74.5,47.9,30.21,SSE,158,9.2,9.2,39,0.00,CLR,,0.00,WeatherDisplay:10.37,2013-05-12 23:59:00,
2013-05-12 19:04:00,74.3,47.0,30.21,ESE,112,6.9,6.9,38,0.00,CLR,,0.00,WeatherDisplay:10.37,2013-05-13 00:04:00,
2013-05-12 19:09:00,73.8,47.3,30.22,South,180,4.6,4.6,39,0.00,CLR,,0.00,WeatherDisplay:10.37,2013-05-13 00:09:00,
2013-05-12 19:14:00,73.6,47.8,30.22,SE,135,3.5,3.5,40,0.00,CLR,,0.00,WeatherDisplay:10.37,2013-05-13 00:14:00,
2013-05-12 19:19:00,73.6,48.4,30.22,SSE,158,4.7,4.7,41,0.00,CLR,,0.00,WeatherDisplay:10.37,2013-05-13 00:19:00,
2013-05-12 19:24:00,73.6,49.1,30.22,SSE,158,3.5,3.5,42,0.00,CLR,,0.00,WeatherDisplay:10.37,2013-05-13 00:24:00,
2013-05-12 19:29:00,73.6,48.4,30.22,SSE,158,3.5,3.5,41,0.00,CLR,,0.00,WeatherDisplay:10.37,2013-05-13 00:29:00,
2013-05-12 19:34:00,73.4,48.9,30.22,SE,135,2.6,3.1,42,0.00,CLR,,0.00,WeatherDisplay:10.37,2013-05-13 00:34:00,
2013-05-12 19:39:00,73.6,49.1,30.22,SE,135,3.5,3.5,42,0.00,CLR,,0.00,WeatherDisplay:10.37,2013-05-13 00:39:00,
2013-05-12 19:44:00,73.6,49.1,30.22,East,90,6.9,6.9,42,0.00,CLR,,0.00,WeatherDisplay:10.37,2013-05-13 00:44:00,
2013-05-12 19:49:00,73.2,48.7,30.22,NNE,22,2.3,3.2,42,0.00,CLR,,0.00,WeatherDisplay:10.37,2013-05-13 00:49:00,
2013-05-12 19:54:00,73.0,49.8,30.22,SE,135,2.6,2.6,44,0.00,CLR,,0.00,WeatherDisplay:10.37,2013-05-13 00:54:00,
2013-05-12 19:59:00,72.9,49.7,30.22,SE,135,2.3,2.5,44,0.00,CLR,,0.00,WeatherDisplay:10.37,2013-05-13 00:59:00,
2013-05-12 20:04:00,72.5,49.3,30.22,SE,135,4.6,4.6,44,0.00,CLR,,0.00,WeatherDisplay:10.37,2013-05-13 01:04:00,
2013-05-12 20:09:00,72.1,49.6,30.23,ESE,112,2.3,2.6,45,0.00,CLR,,0.00,WeatherDisplay:10.37,2013-05-13 01:09:00,
2013-05-12 20:14:00,71.8,49.3,30.23,ESE,112,2.3,2.3,45,0.00,CLR,,0.00,WeatherDisplay:10.37,2013-05-13 01:14:00,
2013-05-12 20:19:00,71.8,49.3,30.23,SE,135,2.3,2.3,45,0.00,CLR,,0.00,WeatherDisplay:10.37,2013-05-13 01:19:00,
2013-05-12 20:24:00,71.2,48.8,30.23,SE,135,2.3,2.3,45,0.00,CLR,,0.00,WeatherDisplay:10.37,2013-05-13 01:24:00,
2013-05-12 20:29:00,71.2,49.4,30.21,SE,135,2.3,2.3,46,0.00,CLR,,0.00,WeatherDisplay:10.37,2013-05-13 01:29:00,
2013-05-12 20:34:00,70.9,49.1,30.21,SE,135,2.3,2.3,46,0.00,CLR,,0.00,WeatherDisplay:10.37,2013-05-13 01:34:00,
2013-05-12 20:39:00,70.7,48.9,30.21,ESE,112,2.3,2.3,46,0.00,CLR,,0.00,WeatherDisplay:10.37,2013-05-13 01:39:00,
2013-05-12 20:44:00,70.3,49.1,30.21,ESE,112,2.3,2.4,47,0.00,CLR,,0.00,WeatherDisplay:10.37,2013-05-13 01:44:00,
2013-05-12 20:49:00,70.2,49.5,30.19,SE,135,2.3,2.5,48,0.00,CLR,,0.00,WeatherDisplay:10.37,2013-05-13 01:49:00,
2013-05-12 20:54:00,69.8,49.2,30.19,SE,135,3.5,3.5,48,0.00,CLR,,0.00,WeatherDisplay:10.37,2013-05-13 01:54:00,
2013-05-12 20:59:00,69.6,49.6,30.19,SE,135,3.5,3.5,49,0.00,CLR,,0.00,WeatherDisplay:10.37,2013-05-13 01:59:00,
2013-05-12 21:04:00,69.4,49.4,30.20,ESE,112,2.3,2.4,49,0.00,CLR,,0.00,WeatherDisplay:10.37,2013-05-13 02:04:00,
2013-05-12 21:09:00,69.1,49.1,30.20,ESE,112,2.3,2.3,49,0.00,CLR,,0.00,WeatherDisplay:10.37,2013-05-13 02:09:00,
2013-05-12 21:14:00,68.9,49.5,30.20,ESE,112,2.3,2.3,50,0.00,CLR,,0.00,WeatherDisplay:10.37,2013-05-13 02:14:00,
2013-05-12 21:19:00,68.7,49.3,30.20,ESE,112,3.5,3.5,50,0.00,CLR,,0.00,WeatherDisplay:10.37,2013-05-13 02:19:00,
2013-05-12 21:24:00,68.5,49.2,30.19,SSE,158,2.3,2.3,50,0.00,CLR,,0.00,WeatherDisplay:10.37,2013-05-13 02:24:00,
2013-05-12 21:29:00,68.5,49.7,30.19,SE,135,3.5,3.5,51,0.00,CLR,,0.00,WeatherDisplay:10.37,2013-05-13 02:29:00,
2013-05-12 21:34:00,68.0,49.2,30.19,SE,135,3.5,3.5,51,0.00,CLR,,0.00,WeatherDisplay:10.37,2013-05-13 02:34:00,
2013-05-12 21:39:00,68.2,49.4,30.19,NE,45,2.3,2.3,51,0.00,CLR,,0.00,WeatherDisplay:10.37,2013-05-13 02:39:00,
2013-05-12 21:44:00,67.8,49.5,30.20,ENE,68,3.5,3.5,52,0.00,CLR,,0.00,WeatherDisplay:10.37,2013-05-13 02:44:00,
2013-05-12 21:49:00,67.6,49.4,30.20,ESE,112,3.5,3.5,52,0.00,CLR,,0.00,WeatherDisplay:10.37,2013-05-13 02:49:00,
2013-05-12 21:54:00,67.5,49.2,30.20,SE,135,3.6,3.6,52,0.00,CLR,,0.00,WeatherDisplay:10.37,2013-05-13 02:54:00,
2013-05-12 22:00:00,67.3,49.6,30.20,SE,145,3.0,5.0,53,0.00,,,0.00,WeatherDisplay:10.37,2013-05-13 03:00:00,
2013-05-12 22:05:00,67.3,49.6,30.21,SE,145,3.0,5.0,53,0.00,,,0.00,WeatherDisplay:10.37,2013-05-13 03:05:00,
2013-05-12 22:10:00,67.1,49.3,30.21,SE,143,3.0,5.0,53,0.00,,,0.00,WeatherDisplay:10.37,2013-05-13 03:10:00,
2013-05-12 22:15:00,67.1,49.9,30.21,SE,133,3.0,5.0,54,0.00,,,0.00,WeatherDisplay:10.37,2013-05-13 03:15:00,
2013-05-12 22:20:00,66.7,49.6,30.21,SE,135,3.0,6.0,54,0.00,,,0.00,WeatherDisplay:10.37,2013-05-13 03:20:00,
2013-05-12 22:25:00,66.7,49.6,30.21,SE,145,3.0,5.0,54,0.00,,,0.00,WeatherDisplay:10.37,2013-05-13 03:25:00,
2013-05-12 22:30:00,66.4,49.2,30.21,SSE,166,3.0,5.0,54,0.00,,,0.00,WeatherDisplay:10.37,2013-05-13 03:30:00,
2013-05-12 22:35:00,66.2,49.1,30.21,SSE,151,3.0,5.0,54,0.00,,,0.00,WeatherDisplay:10.37,2013-05-13 03:35:00,
2013-05-12 22:40:00,66.0,48.9,30.21,SE,129,2.0,5.0,54,0.00,,,0.00,WeatherDisplay:10.37,2013-05-13 03:40:00,
2013-05-12 22:45:00,65.8,48.7,30.22,ESE,112,2.0,3.0,54,0.00,,,0.00,WeatherDisplay:10.37,2013-05-13 03:45:00,
2013-05-12 22:50:00,65.7,49.0,30.22,ESE,110,2.0,2.0,55,0.00,,,0.00,WeatherDisplay:10.37,2013-05-13 03:50:00,
2013-05-12 22:55:00,65.7,49.0,30.22,SE,128,1.0,2.0,55,0.00,,,0.00,WeatherDisplay:10.37,2013-05-13 03:55:00,
2013-05-12 23:00:00,65.3,48.7,30.22,SE,132,1.0,2.0,55,0.00,,,0.00,WeatherDisplay:10.37,2013-05-13 04:00:00,
2013-05-12 23:01:00,65.3,48.7,30.22,SE,135,2.3,2.3,55,0.00,CLR,,0.00,WeatherDisplay:10.37,2013-05-13 04:01:00,
2013-05-12 23:02:00,65.3,48.7,30.22,SE,135,2.3,2.3,55,0.00,CLR,,0.00,WeatherDisplay:10.37,2013-05-13 04:02:00,
2013-05-12 23:03:00,65.3,48.7,30.22,SE,135,2.3,2.3,55,0.00,CLR,,0.00,WeatherDisplay:10.37,2013-05-13 04:03:00,
2013-05-12 23:04:00,65.3,48.7,30.23,SE,135,2.3,2.3,55,0.00,CLR,,0.00,WeatherDisplay:10.37,2013-05-13 04:04:00,
2013-05-12 23:09:00,65.1,48.5,30.23,SE,135,1.4,1.4,55,0.00,CLR,,0.00,WeatherDisplay:10.37,2013-05-13 04:09:00,
2013-05-12 23:10:00,65.1,49.0,30.23,ESE,112,1.4,1.4,56,0.00,CLR,,0.00,WeatherDisplay:10.37,2013-05-13 04:10:00,
2013-05-12 23:15:00,65.1,49.0,30.23,SE,135,2.3,2.3,56,0.00,CLR,,0.00,WeatherDisplay:10.37,2013-05-13 04:15:00,
2013-05-12 23:20:00,64.9,48.9,30.23,SSE,158,2.3,2.3,56,0.00,CLR,,0.00,WeatherDisplay:10.37,2013-05-13 04:20:00,
2013-05-12 23:25:00,64.8,48.7,30.23,SE,135,0.0,1.2,56,0.00,CLR,,0.00,WeatherDisplay:10.37,2013-05-13 04:25:00,
2013-05-12 23:30:00,64.5,49.4,30.23,SE,134,0.0,0.0,58,0.00,,,0.00,WeatherDisplay:10.37,2013-05-13 04:30:00,
2013-05-12 23:35:00,64.0,49.0,30.23,NNW,338,0.0,0.0,58,0.00,CLR,,0.00,WeatherDisplay:10.37,2013-05-13 04:35:00,
2013-05-12 23:40:00,63.6,49.0,30.23,NE,45,0.0,0.0,59,0.00,CLR,,0.00,WeatherDisplay:10.37,2013-05-13 04:40:00,
2013-05-12 23:45:00,63.5,49.4,30.22,NNE,22,0.0,0.1,60,0.00,CLR,,0.00,WeatherDisplay:10.37,2013-05-13 04:45:00,
2013-05-12 23:50:00,63.1,49.0,30.22,NE,45,0.0,0.1,60,0.00,CLR,,0.00,WeatherDisplay:10.37,2013-05-13 04:50:00,
2013-05-12 23:55:00,63.1,49.0,30.22,NE,45,0.0,0.0,60,0.00,CLR,,0.00,WeatherDisplay:10.37,2013-05-13 04:55:00,